This demonstration page uses our WeatherBlox Daily Observations layout. Learn more.

Hourly Observations for July 22, 2017

Temp ( °F °C ) Dew Point ( °F °C ) Humidity (%) Winds ( mph kmh ) Pressure ( in mb ) Visibility ( mi km ) Precip ( " mm )
12:54 am 00:54 Clear 84 28.9 67 19.4 57 57 S 12 19 29.69 1005 10 16.0934 0 0
1:54 am 01:54 Clear 79 26.1 67 19.4 67 67 S 12 19 29.69 1005 10 16.0934 0 0
2:54 am 02:54 Clear 81 27.2 65 18.3 58 58 SSW 10 17 29.7 1006 10 16.0934 0 0
3:54 am 03:54 Clear 81 27.2 66 18.9 61 61 W 5 7 29.73 1007 10 16.0934 0 0
4:54 am 04:54 Clear 80 26.7 68 20 67 67 W 8 13 29.73 1007 10 16.0934 0 0
5:54 am 05:54 Clear 78 25.6 70 21.1 76 76 N 10 17 29.75 1008 10 16.0934 0 0
6:40 am 06:40 Cloudy 78 25.6 73 22.8 85 85 NNW 9 15 29.77 1008 9 14.48406 0 0
6:52 am 06:52 Cloudy 79 26 75 24 89 89 N 8 13 29.77 1008 7 11.26538 0 0
6:54 am 06:54 Cloudy 78 25.6 75 23.9 90 90 N 8 13 29.77 1008 7 11.26538 0 0
7:27 am 07:27 Cloudy with Mist and Fog 79 26.1 77 25 94 94 N 7 11 29.77 1008 2 3.21868 0 0
7:54 am 07:54 Cloudy with Mist and Fog 79 26.1 77 25 94 94 NNE 7 11 29.77 1008 2 3.21868 0 0
8:13 am 08:13 Cloudy with Mist and Fog 81 27.2 78 25.6 91 91 VRB 5 7 29.77 1008 3 4.82802 0 0
8:40 am 08:40 Cloudy with Mist and Fog 81 27.2 78 25.6 91 91 SSE 3 6 29.77 1008 4 6.43736 0 0
8:54 am 08:54 Cloudy with Mist and Fog 81 27.2 77 25 88 88 Calm 29.79 1009 5 8.0467 0 0
9:54 am 09:54 Cloudy with Mist and Fog 81 27.2 77 25 88 88 N 14 22 29.82 1010 6 9.65604 0 0
10:54 am 10:54 Cloudy 83 28.3 77 25 82 82 N 10 17 29.83 1010 7 11.26538 0 0
11:26 am 11:26 Cloudy 84 28.9 77 25 80 80 N 12 19 29.83 1010 7 11.26538 0 0
11:54 am 11:54 Partly Cloudy 86 30 78 25.6 77 77 N 12 19 29.83 1010 7 11.26538 0 0
12:54 pm 12:54 Sunny 90 32.2 77 25 66 66 NNE 13 20 29.83 1010 9 14.48406 0 0
1:54 pm 13:54 Sunny 91 32.8 73 22.8 56 56 NNE 13 20 29.84 1010 10 16.0934 0 0
2:54 pm 14:54 Sunny 92 33.3 74 23.3 56 56 NNE 12 19 29.83 1010 10 16.0934 0 0
3:54 pm 15:54 Sunny 88 31.1 74 23.3 63 63 N 15 24 29.87 1011 10 16.0934 0 0
4:54 pm 16:54 Sunny 88 31.1 74 23.3 63 63 N 13 20 29.85 1011 9 14.48406 0 0
5:54 pm 17:54 Sunny 88 31.1 74 23.3 63 63 NNE 13 20 29.85 1011 10 16.0934 0 0
6:54 pm 18:54 Sunny 83 28.3 74 23.3 74 74 NNE 13 20 29.85 1011 10 16.0934 0 0
7:54 pm 19:54 Sunny 82 27.8 74 23.3 77 77 N 9 15 29.88 1012 10 16.0934 0 0
8:54 pm 20:54 Clear 81 27.2 72 22.2 74 74 N 5 7 29.89 1012 10 16.0934 0 0
9:54 pm 21:54 Mostly Clear 79 26.1 73 22.8 82 82 Calm 29.9 1013 10 16.0934 0 0.0254
10:54 pm 22:54 Clear 80 26.7 71 21.7 74 74 WSW 7 11 29.91 1013 10 16.0934 0 0
11:54 pm 23:54 Clear 76 24.4 72 22.2 88 88 Calm 29.91 1013 10 16.0934 0 0

Powered by AerisWeather